| time (UTC) | temp F | wind direction | speed MPH | gust MPH | rain 1hr in | rain 24hr in | rain mn in | humidity % | barometer mb |
| 20260504141332 | 60 | 79 | 1.0 | 3.0 | 0.00 | 0.00 | 0.00 | 97 | 1021.0 |
| 20260504140331 | 64 | 79 | 1.0 | 3.0 | 0.01 | 0.00 | 0.00 | 97 | 1021.0 |
| 20260504130327 | 59 | 61 | 1.0 | 2.0 | 0.01 | 0.00 | 0.00 | 97 | 1021.0 |
| 20260504110318 | 61 | 42 | 0.0 | 2.0 | 0.00 | 0.00 | 0.00 | 97 | 1019.0 |
| 20260504100313 | 62 | 38 | 0.0 | 2.0 | 0.00 | 0.00 | 0.00 | 97 | 1019.0 |
| 20260504081305 | 63 | 317 | 1.0 | 1.0 | 0.00 | 0.00 | 0.00 | 98 | 1019.0 |
| 20260504080305 | 59 | 317 | 1.0 | 1.0 | 0.00 | 0.00 | 0.00 | 98 | 1019.0 |
| 20260504070300 | 61 | 331 | 1.0 | 2.0 | 0.00 | 0.00 | 0.00 | 98 | 1019.0 |
| 20260504050251 | 62 | 15 | 0.0 | 2.0 | 0.00 | 0.00 | 0.00 | 98 | 1021.0 |
| 20260504045250 | 59 | 15 | 0.0 | 2.0 | 0.00 | 0.00 | 0.00 | 98 | 1021.0 |
| 20260504044250 | 55 | 15 | 0.0 | 2.0 | 0.00 | 0.00 | 0.00 | 98 | 1021.0 |
| 20260504043249 | 59 | 15 | 0.0 | 2.0 | 0.00 | 0.00 | 0.00 | 98 | 1021.0 |
| 20260504042248 | 63 | 80 | 0.0 | 3.0 | 0.00 | 0.00 | 0.00 | 98 | 1021.0 |
| 20260504041248 | 60 | 80 | 0.0 | 3.0 | 0.00 | 0.00 | 0.00 | 98 | 1021.0 |
| 20260504040247 | 57 | 80 | 0.0 | 3.0 | 0.00 | 0.00 | 0.00 | 98 | 1021.0 |
| 20260504035246 | 53 | 80 | 0.0 | 3.0 | 0.00 | 0.00 | 0.00 | 98 | 1021.0 |
| 20260504034245 | 57 | 80 | 0.0 | 3.0 | 0.00 | 0.00 | 0.00 | 98 | 1021.0 |
| 20260504033245 | 61 | 80 | 0.0 | 3.0 | 0.00 | 0.00 | 0.00 | 98 | 1021.0 |
| 20260504032244 | 57 | 105 | 0.0 | 3.0 | 0.00 | 0.00 | 0.00 | 98 | 1021.0 |
| 20260504031243 | 61 | 105 | 0.0 | 3.0 | 0.00 | 0.00 | 0.00 | 98 | 1021.0 |
| 20260504030242 | 57 | 105 | 0.0 | 3.0 | 0.00 | 0.00 | 0.00 | 98 | 1021.0 |
| 20260504025242 | 55 | 105 | 0.0 | 3.0 | 0.00 | 0.00 | 0.00 | 98 | 1021.0 |
| 20260504024241 | 59 | 105 | 0.0 | 3.0 | 0.00 | 0.00 | 0.00 | 98 | 1021.0 |
| 20260504023240 | 63 | 105 | 0.0 | 3.0 | 0.00 | 0.00 | 0.00 | 98 | 1021.0 |
| 20260504022239 | 59 | 80 | 0.0 | 3.0 | 0.00 | 0.00 | 0.00 | 98 | 1021.0 |
| 20260504021238 | 63 | 80 | 0.0 | 3.0 | 0.00 | 0.00 | 0.00 | 98 | 1021.0 |
| 20260504020238 | 59 | 80 | 0.0 | 3.0 | 0.00 | 0.00 | 0.00 | 98 | 1021.0 |
| 20260504015237 | 63 | 80 | 0.0 | 3.0 | 0.00 | 0.00 | 0.00 | 98 | 1021.0 |
| 20260504014236 | 59 | 80 | 0.0 | 3.0 | 0.00 | 0.00 | 0.00 | 98 | 1021.0 |
| 20260504013236 | 63 | 80 | 0.0 | 3.0 | 0.00 | 0.00 | 0.00 | 98 | 1021.0 |
| 20260504012235 | 60 | 70 | 1.0 | 4.0 | 0.00 | 0.00 | 0.00 | 98 | 1020.0 |
| 20260504011234 | 57 | 70 | 1.0 | 4.0 | 0.00 | 0.00 | 0.00 | 98 | 1020.0 |
| 20260504010233 | 53 | 70 | 1.0 | 4.0 | 0.00 | 0.00 | 0.00 | 98 | 1020.0 |
| 20260504005233 | 57 | 70 | 1.0 | 4.0 | 0.00 | 0.00 | 0.00 | 98 | 1020.0 |
| 20260504004232 | 61 | 70 | 1.0 | 4.0 | 0.00 | 0.00 | 0.00 | 98 | 1020.0 |
| 20260504003232 | 57 | 70 | 1.0 | 4.0 | 0.00 | 0.00 | 0.00 | 97 | 1020.0 |